Date,TemperatureHighF,TemperatureAvgF,TemperatureLowF,DewpointHighF,DewpointAvgF,DewpointLowF,HumidityHigh,HumidityAvg,HumidityLow,PressureMaxIn,PressureMinIn,WindSpeedMaxMPH,WindSpeedAvgMPH,GustSpeedMaxMPH,PrecipitationSumIn
2013-8-1,-200,0,200,-100,-100,-100,0,0,100,0.00,40.00,10,6,0,0.00
2013-8-2,-200,0,200,-100,-100,-100,0,0,100,0.00,40.00,8,5,0,0.00
2013-8-3,-200,0,200,-100,-100,-100,0,0,100,0.00,40.00,11,5,0,0.00
2013-8-4,-200,0,200,-100,-100,-100,0,0,100,0.00,40.00,13,8,0,0.00
2013-8-5,-200,0,200,-100,-100,-100,0,0,100,0.00,40.00,10,5,0,0.00
2013-8-6,-200,0,200,-100,-100,-100,0,0,100,0.00,40.00,10,4,0,0.00
2013-8-7,-200,0,200,-100,-100,-100,0,0,100,0.00,40.00,13,6,0,0.00
2013-8-8,-200,0,200,-100,-100,-100,0,0,100,0.00,40.00,13,5,0,0.00
2013-8-9,-200,0,200,-100,-100,-100,0,0,100,0.00,40.00,11,6,0,0.00
2013-8-10,-200,0,200,-100,-100,-100,0,0,100,0.00,40.00,19,5,0,0.00
2013-8-11,-200,0,200,-100,-100,-100,0,0,100,0.00,40.00,12,5,0,0.00
2013-8-12,-200,0,200,-100,-100,-100,0,0,100,0.00,40.00,11,5,0,0.00
2013-8-13,-200,0,200,-100,-100,-100,0,0,100,0.00,40.00,15,8,0,0.00
2013-8-14,-200,0,200,-100,-100,-100,0,0,100,0.00,40.00,15,11,0,0.00
2013-8-15,-200,0,200,-100,-100,-100,0,0,100,0.00,40.00,13,7,0,0.00
2013-8-16,-200,0,200,-100,-100,-100,0,0,100,0.00,40.00,11,5,0,0.00
2013-8-17,-200,0,200,-100,-100,-100,0,0,100,0.00,40.00,10,6,0,0.00
2013-8-18,-200,0,200,-100,-100,-100,0,0,100,0.00,40.00,15,4,0,0.00
2013-8-19,-200,0,200,-100,-100,-100,0,0,100,0.00,40.00,6,3,0,0.00
2013-8-20,-200,0,200,-100,-100,-100,0,0,100,0.00,40.00,9,4,0,0.00
2013-8-21,-200,0,200,-100,-100,-100,0,0,100,0.00,40.00,15,4,0,0.00
2013-8-22,-200,0,200,-100,-100,-100,0,0,100,0.00,40.00,8,4,0,0.00
2013-8-23,-200,0,200,-100,-100,-100,0,0,100,0.00,40.00,15,3,0,0.00
2013-8-24,-200,0,200,-100,-100,-100,0,0,100,0.00,40.00,12,7,0,0.00
2013-8-25,-200,0,200,-100,-100,-100,0,0,100,0.00,40.00,8,4,0,0.00
2013-8-26,-200,0,200,-100,-100,-100,0,0,100,0.00,40.00,9,4,0,0.00
2013-8-27,-200,0,200,-100,-100,-100,0,0,100,0.00,40.00,6,3,0,0.00
2013-8-28,-200,0,200,-100,-100,-100,0,0,100,0.00,40.00,10,7,0,0.00
2013-8-29,-200,0,200,-100,-100,-100,0,0,100,0.00,40.00,10,6,0,0.00
2013-8-30,-200,0,200,-100,-100,-100,0,0,100,0.00,40.00,8,4,0,0.00
2013-8-31,-200,0,200,-100,-100,-100,0,0,100,0.00,40.00,15,7,0,0.00